Regional Weather Roundup
Issued by NWS Wilmington, NC

Home | Current Version | Previous Version | Text Only | Print | Product List | Glossary On
Versions: 1 2 3 4 5 6 7 8 9 10 11 12 13 14 15 16 17 18 19 20 21 22 23 24 25 26 27 28 29 30 31 32 33 34 35 36 37 38 39 40 41 42 43 44 45 46 47 48 49 50
344
ASUS42 KILM 222113
RWRILM
RWRILM
REGIONAL HOURLY WEATHER ROUNDUP
NATIONAL WEATHER SERVICE WILMINGTON NC
500 PM EDT SUN OCT 22 2017

NOTE: "FAIR" INDICATES FEW OR NO CLOUDS BELOW 12,000 FEET WITH NO
SIGNIFICANT WEATHER AND/OR OBSTRUCTIONS TO VISIBILITY.

...............WFO WILMINGTON COUNTY WARNING AREA...............

......COASTAL NC AND SC COUNTIES......

CITY           SKY/WX    TMP DP  RH WIND       PRES   REMARKS
WILMINGTON     SUNNY     78  62  57 E9        30.25F
N MYRTLE BEACH SUNNY     78  64  61 E8G20     30.24F
MYRTLE BEACH   NOT AVBL

......INLAND NC AND SC COUNTIES.......

CITY           SKY/WX    TMP DP  RH WIND       PRES   REMARKS
LUMBERTON      CLOUDY    79  60  52 SE7       30.23F
ELIZABETHTOWN  NOT AVBL
WHITEVILLE     CLOUDY    80  61  53 E8        30.23F
FLORENCE       PTSUNNY   79  63  57 SE13      30.22F
DARLINGTON     CLOUDY    78  62  57 SE8       30.23S
KINGSTREE      NOT AVBL
HARTSVILLE     CLOUDY    77  59  53 SE6       30.22F
BENNETTSVILLE  PTSUNNY   81  59  47 E8        30.22S
CONWAY         FAIR      77  61  57 E6        30.23F
GEORGETOWN     NOT AVBL
MARION         CLOUDY    77  61  57 SE7       30.23S

....................REST OF NORTH CAROLINA......................

.........EASTERN NC.........

CITY           SKY/WX    TMP DP  RH WIND       PRES   REMARKS
CAPE HATTERAS  SUNNY     78  61  55 E6        30.29F
JACKSONVILLE   MOSUNNY   78  64  61 SE7       30.26F
MOREHEAD CITY  MOSUNNY   76  64  66 E7        30.28S
KENANSVILLE    MOSUNNY   79  61  53 SE6       30.26F
NEW BERN       MOSUNNY   77  64  64 E6        30.29S
ELIZABETH CITY SUNNY     76  64  66 E10       30.30F

.........CENTRAL NC.........

CITY           SKY/WX    TMP DP  RH WIND       PRES   REMARKS
RALEIGH DURHAM MOSUNNY   77  55  46 S7        30.27F
ROCKY MOUNT    SUNNY     79  60  52 SE3       30.27F
ROANOKE RAPIDS NOT AVBL
FAYETTEVILLE   MOSUNNY   77  61  57 SE7       30.24F
HOFFMAN        MOSUNNY   79  58  48 SE10      30.23F

.........WESTERN NC.........

CITY           SKY/WX    TMP DP  RH WIND       PRES   REMARKS
CHARLOTTE      PTSUNNY   78  57  48 E7        30.24F
GREENSBORO     PTSUNNY   74  56  53 SE9       30.26F
HICKORY        NOT AVBL
BOONE          NOT AVBL
ASHEVILLE      NOT AVBL

.....................REST OF SOUTH CAROLINA.....................

.........EASTERN SC.........

CITY           SKY/WX    TMP DP  RH WIND       PRES   REMARKS
CHARLESTON     LGT RAIN  73  71  93 NE7       30.18F
BEAUFORT MCAS  CLOUDY    73  73 100 MISG      30.18F
HILTON HEAD    CLOUDY    73  70  88 NE9       30.18F

.........CENTRAL SC.........

CITY           SKY/WX    TMP DP  RH WIND       PRES   REMARKS
COLUMBIA       CLOUDY    79  63  57 SE10      30.20F
ORANGEBURG     CLOUDY    72  68  87 SE3       30.21F
SUMTER SHAW    CLOUDY    78  62  57 E8        30.19S

.........WESTERN SC.........

CITY           SKY/WX    TMP DP  RH WIND       PRES   REMARKS
GREENVILLE     NOT AVBL
ROCK HILL      PTSUNNY   78  59  51 CALM      30.24F
ANDERSON       CLOUDY    76  58  53 SE6       30.20F
CLEMSON        NOT AVBL
GREENWOOD      LGT RAIN  75  60  59 E8        30.21F


...................COASTAL AND OFFSHORE REPORTS..................

................LOCAL PIERS AND NC RESERVE................


STATION/POSITION TIME  SKY/WX   TEMP    WIND        PRES    VSBY
                                AIR SEA DIR/SP/G
                 (UTC)          (F)     (DEG/KT/KT) (MB)    (MI)
JOHNY MRCER PIER 2048            75 76   60/  9/ 10 1024.7F
NC RESRV MASNBRO 1945            76      90/  7     1025.0
OCEAN CREST PIER NOT AVBL
SPRINGMAID  PIER 2048                               1023.3F


................COASTAL AND OFFSHORE BUOYS................


STATION/POSITION TIME  SKY/WX   TEMP    WIND        PRES    VSBY
                                AIR SEA DIR/SP/G
                 (UTC)          (F)     (DEG/KT/KT) (MB)    (MI)
DIMNDSHOAL 41025 2050            76 81  100/  4/  8 1025.6F
WVE H/P(F/S)=  3/ 9 SWL H/P/D(F/S/D)=  3/ 90/ 9

CAPE LOOKOUT     2100            76     110/  7/  7 1024.9S
ONSLOW BAY 41036 NOT AVBL
ONSLOW BAY 41064 2008            78     140/  6/ 10 1025.0F
ONSLOW BAY 41159 NOT AVBL
MASNBO INL 41110 2029               75                N/A
WVE H/P(F/S)=  3/ 8

WILM HARBR 41108 2100               74                N/A
WVE H/P(F/S)=  3/ 8

27SE WRITB 41037 2008            77 76  130/  8/ 12 1024.8F
FRYING PAN 41013 2100            77 77   90/ 12/ 14 1023.7
SUNST NRSH 41024 2008            75 74  110/  8/ 10 1024.3F
CAPRS NRSH 41029 2008            73 73   90/ 14/ 19 1022.3F
EDISTO     41004 2050            74 79   90/ 12/ 17 1022.0F
WVE H/P(F/S)=  6/ 7 SWL H/P/D(F/S/D)=  3/120/ 8



..........OFFSHORE BUOYS BEYOND 100 NM OFFSHORE...........
.....IN A TRIANGLE---HAT TO BERMUDA TO BAHAMAS TO HAT.....


STATION/POSITION TIME  SKY/WX   TEMP    WIND        PRES    VSBY
                                AIR SEA DIR/SP/G
                 (UTC)          (F)     (DEG/KT/KT) (MB)    (MI)
150E HAT   41001 NOT AVBL
W BERMUDA  41048 2100            76 79   60/ 10/ 12 1024.7
ATLANTIC S 41049 2050            79 81  250/  2/  4 1020.6F
WVE H/P(F/S)=  5/ 7 SWL H/P/D(F/S/D)=  5/ 70/ 7

E BAHAMAS  41046 2100            81 82   80/ 14/ 17 1018.9
NE BAHAMAS 41047 2050            77 81  100/ 14/ 17 1021.8S
WVE H/P(F/S)=  5/ 6 SWL H/P/D(F/S/D)=  3/120/ 8

120E CANVRL41010 NOT AVBL

END




USA.gov is the U.S. government's official web portal to all federal, state and local government web resources and services.